Rutherfordton, NC

6:04 PM EDT on July 20, 2017 (GMT -0400)
Rutherford County-Marchman

Weather History for KFQD - November, 2012

Change the Weather History Date:

Saturday, November 3, 2012

  Actual Average (KAVL) Record (KAVL)
Temperature  
Mean Temperature 53 °F -  
Max Temperature 70 °F 64 °F 81 °F (1974)
Min Temperature 36 °F 39 °F 19 °F (1954)
Degree Days  
Heating Degree Days 12    
Growing Degree Days 3 (Base 50)    
Moisture  
Dew Point 34 °F    
Average Humidity 51    
Maximum Humidity 82    
Minimum Humidity 26    
Precipitation  
Precipitation 0.00 in - - ()
Sea Level Pressure  
Sea Level Pressure 30.03 in    
Wind  
Wind Speed 2 mph (SSW)    
Max Wind Speed 8 mph    
Max Gust Speed -    
Visibility 10 miles    
Events      
Averages and records for this station are not official NWS values.
T = Trace of Precipitation, MM = Missing Value Source: NWS Daily Summary

Daily Weather History Graph

Daily Weather History Graph

Search for Another Location

Airport or City:

Trip Planner

Search our weather history database for the weather conditions in past years. The results will help you decide how hot, cold, wet, or windy it might be!

Date:

Astronomy

Nov. 03, 2012 Rise Set
Actual Time 7:51 AM EDT 6:30 PM EDT
Civil Twilight 7:25 AM EDT 6:56 PM EDT
Nautical Twilight 6:55 AM EDT 7:26 PM EDT
Astronomical Twilight 6:25 AM EDT 7:56 PM EDT
Moon 10:13 PM EDT (11/3) 11:51 AM EDT (11/3)
Length of Visible Light 11h 31m
Length of Day
10h 38m
Waning Gibbous, 80% of the Moon is Illuminated
Nov 3
Waning Gibbous
Nov 6
Last Quarter
Nov 13
New
Nov 20
First Quarter
Nov 28
Full

Hourly Weather History & Observations

Time (EDT) Temp. Windchill Dew Point Humidity Pressure Visibility Wind Dir Wind Speed Gust Speed Precip Events Conditions
12:15 AM 50.5 °F - 30.9 °F 47% 30.00 in 10.0 mi Calm Calm - N/A   Clear
12:35 AM 48.9 °F - 31.3 °F 51% 30.01 in 10.0 mi Calm Calm - N/A   Clear
12:55 AM 46.6 °F - 31.5 °F 56% 30.01 in 10.0 mi Calm Calm - N/A   Clear
1:15 AM 45.0 °F 42.6 °F 31.8 °F 60% 30.01 in 10.0 mi NW 4.6 mph - N/A   Clear
1:35 AM 44.2 °F 42.7 °F 32.0 °F 62% 30.01 in 10.0 mi NNW 3.5 mph - N/A   Clear
1:55 AM 42.1 °F 38.4 °F 32.0 °F 67% 30.01 in 10.0 mi NNW 5.8 mph - N/A   Clear
2:15 AM 42.3 °F 38.6 °F 32.0 °F 67% 30.01 in 10.0 mi NW 5.8 mph - N/A   Clear
2:35 AM 44.1 °F 40.8 °F 30.9 °F 60% 30.02 in 10.0 mi NNW 5.8 mph - N/A   Clear
2:55 AM 44.6 °F 40.7 °F 30.2 °F 57% 30.02 in 10.0 mi NNW 6.9 mph - N/A   Clear
3:15 AM 46.2 °F 43.3 °F 29.5 °F 52% 30.02 in 10.0 mi NNW 5.8 mph - N/A   Clear
3:35 AM 39.7 °F 37.6 °F 31.5 °F 72% 30.02 in 10.0 mi NNW 3.5 mph - N/A   Clear
3:55 AM 40.6 °F 38.6 °F 31.1 °F 69% 30.02 in 10.0 mi North 3.5 mph - N/A   Clear
4:15 AM 43.0 °F - 30.2 °F 61% 30.02 in 10.0 mi Calm Calm - N/A   Clear
4:35 AM 41.0 °F 39.0 °F 30.4 °F 66% 30.02 in 10.0 mi NW 3.5 mph - N/A   Clear
4:55 AM 41.4 °F - 30.2 °F 65% 30.02 in 10.0 mi Calm Calm - N/A   Clear
5:15 AM 41.0 °F - 30.0 °F 65% 30.02 in 10.0 mi Calm Calm - N/A   Clear
5:35 AM 39.6 °F - 30.7 °F 71% 30.03 in 10.0 mi Calm Calm - N/A   Clear
5:55 AM 39.0 °F - 30.6 °F 72% 30.03 in 10.0 mi Calm Calm - N/A   Clear
6:15 AM 41.2 °F - 30.2 °F 65% 30.05 in 10.0 mi Calm Calm - N/A   Clear
6:35 AM 41.9 °F 40.0 °F 29.5 °F 61% 30.05 in 10.0 mi NE 3.5 mph - N/A   Clear
6:55 AM 43.7 °F 40.3 °F 29.3 °F 57% 30.06 in 10.0 mi NE 5.8 mph - N/A   Clear
7:15 AM 43.9 °F - 29.1 °F 56% 30.06 in 10.0 mi Calm Calm - N/A   Clear
7:35 AM 36.0 °F - 31.1 °F 82% 30.06 in 10.0 mi Calm Calm - N/A   Clear
7:55 AM 36.9 °F - 31.1 °F 80% 30.07 in 10.0 mi Calm Calm - N/A   Clear
8:15 AM 40.6 °F - 30.4 °F 67% 30.08 in 10.0 mi Calm Calm - N/A   Clear
8:35 AM 41.9 °F - 30.7 °F 65% 30.09 in 10.0 mi Calm Calm - N/A   Clear
8:55 AM 39.0 °F 36.8 °F 33.1 °F 79% 30.10 in 10.0 mi NW 3.5 mph - N/A   Clear
9:15 AM 42.4 °F 40.7 °F 32.0 °F 67% 30.10 in 10.0 mi North 3.5 mph - N/A   Clear
9:35 AM 46.6 °F - 31.8 °F 56% 30.11 in 10.0 mi North 3.5 mph - N/A   Clear
9:55 AM 48.6 °F - 32.0 °F 53% 30.10 in 10.0 mi Calm Calm - N/A   Clear
10:15 AM 50.2 °F - 31.8 °F 49% 30.10 in 10.0 mi Calm Calm - N/A   Clear
10:35 AM 51.6 °F - 32.0 °F 47% 30.11 in 10.0 mi East 3.5 mph - N/A   Clear
10:55 AM 52.3 °F - 33.1 °F 48% 30.11 in 10.0 mi Calm Calm - N/A   Clear
11:15 AM 54.5 °F - 33.4 °F 45% 30.10 in 10.0 mi South 4.6 mph - N/A   Clear
11:35 AM 56.3 °F - 32.9 °F 41% 30.10 in 10.0 mi South 6.9 mph - N/A   Clear
11:55 AM 57.9 °F - 32.9 °F 39% 30.09 in 10.0 mi Calm Calm - N/A   Clear
12:15 PM 59.4 °F - 34.0 °F 39% 30.08 in 10.0 mi South 4.6 mph - N/A   Clear
12:35 PM 61.0 °F - 34.5 °F 37% 30.08 in 10.0 mi Calm Calm - N/A   Clear
12:55 PM 62.1 °F - 34.5 °F 36% 30.07 in 10.0 mi Calm Calm - N/A   Clear
1:15 PM 64.4 °F - 35.2 °F 34% 30.06 in 10.0 mi Calm Calm - N/A   Clear
1:35 PM 66.7 °F - 36.0 °F 32% 30.05 in 10.0 mi Calm Calm - N/A   Clear
1:55 PM 67.8 °F - 33.8 °F 28% 30.04 in 10.0 mi SSE 4.6 mph - N/A   Clear
2:15 PM 69.3 °F - 32.7 °F 26% 30.03 in 10.0 mi West 5.8 mph - N/A   Clear
2:35 PM 69.8 °F - 34.7 °F 27% 30.02 in 10.0 mi SSE 6.9 mph - N/A   Clear
2:55 PM 69.4 °F - 34.7 °F 28% 30.02 in 10.0 mi South 6.9 mph - N/A   Clear
3:15 PM 69.3 °F - 34.9 °F 28% 30.02 in 10.0 mi SSE 8.1 mph - N/A   Clear
3:35 PM 69.8 °F - 35.1 °F 28% 30.01 in 10.0 mi South 6.9 mph - N/A   Clear
3:55 PM 70.0 °F - 35.1 °F 28% 30.02 in 10.0 mi SSW 4.6 mph - N/A   Clear
4:15 PM 70.2 °F - 35.6 °F 28% 30.01 in 10.0 mi SSW 5.8 mph - N/A   Clear
4:35 PM 70.2 °F - 36.0 °F 29% 30.00 in 10.0 mi SW 3.5 mph - N/A   Clear
4:55 PM 70.0 °F - 36.5 °F 29% 30.00 in 10.0 mi South 6.9 mph - N/A   Clear
5:15 PM 69.4 °F - 37.2 °F 31% 30.00 in 10.0 mi South 6.9 mph - N/A   Clear
5:35 PM 68.7 °F - 37.4 °F 32% 29.99 in 10.0 mi South 6.9 mph - N/A   Clear
5:55 PM 67.3 °F - 37.8 °F 34% 29.99 in 10.0 mi South 4.6 mph - N/A   Clear
6:15 PM 66.4 °F - 37.8 °F 35% 29.99 in 10.0 mi SSE 5.8 mph - N/A   Clear
6:35 PM 65.3 °F - 37.4 °F 36% 30.00 in 10.0 mi SSE 3.5 mph - N/A   Clear
6:55 PM 64.8 °F - 37.4 °F 36% 30.00 in 10.0 mi SSE 4.6 mph - N/A   Clear
7:15 PM 63.9 °F - 37.6 °F 38% 29.99 in 10.0 mi SSE 5.8 mph - N/A   Clear
7:35 PM 62.4 °F - 37.6 °F 40% 29.99 in 10.0 mi SSE 3.5 mph - N/A   Clear
7:55 PM 61.0 °F - 37.8 °F 42% 29.99 in 10.0 mi Calm Calm - N/A   Clear
8:15 PM 60.4 °F - 37.9 °F 43% 29.99 in 10.0 mi Calm Calm - N/A   Clear
8:35 PM 59.0 °F - 38.3 °F 46% 30.00 in 10.0 mi Calm Calm - N/A   Clear
8:55 PM 56.3 °F - 38.5 °F 51% 30.00 in 10.0 mi Calm Calm - N/A   Clear
9:15 PM 53.4 °F - 40.3 °F 61% 30.00 in 10.0 mi Calm Calm - N/A   Clear
9:35 PM 54.9 °F - 39.0 °F 55% 30.00 in 10.0 mi Calm Calm - N/A   Clear
9:55 PM 53.6 °F - 39.4 °F 59% 30.00 in 10.0 mi Calm Calm - N/A   Clear
10:15 PM 55.2 °F - 38.5 °F 53% 29.99 in 10.0 mi Calm Calm - N/A   Clear
10:35 PM 52.0 °F - 39.2 °F 62% 29.99 in 10.0 mi Calm Calm - N/A   Clear
10:55 PM 51.1 °F - 39.2 °F 64% 29.99 in 10.0 mi Calm Calm - N/A   Clear
11:15 PM 49.3 °F - 39.4 °F 69% 29.99 in 10.0 mi NE 3.5 mph - N/A   Clear
11:35 PM 50.0 °F - 39.4 °F 67% 29.99 in 10.0 mi Calm Calm - N/A   Clear
11:55 PM 49.3 °F - 39.6 °F 69% 29.99 in 10.0 mi Calm Calm - N/A   Clear